RADUGA 14 [-]

Last updated on Aug. 13, 2020, 5:30 a.m. UTC

1 14725U 84016A   20225.83410056 -.00000205  00000-0  00000-0 0  9994
2 14725  12.5667 328.5562 0004304  97.7287 282.4502  1.00271670 96709
UTC
Height (km)
Latitude
Longitude
Inclination
Orbital Period
UTC large
Height (km)
Speed (km/s)
/
Latitude / Longitude
Inclination (degrees)
Orbital Period (minutes)
Azimuth
Elevation
Range (km)
Doppler Factor
iOS Compass Heading
iOS Angle

Next 30 passes for location: Hong Kong

Rise time Rise Azimuth (degrees) Set time Set Azimuth (degrees) Duration Max altitude (degrees)

No matching passes for this satellites